Tracking 33744 objects as of 12-Apr-2026
HD Live streaming from Space Station
objects crossing your sky now

STARLINK-5990

Track STARLINK-5990 now!
10-day predictions
STARLINK-5990 is classified as:


NORAD ID: 56448
Int'l Code: 2023-064A
Perigee: 577.1 km
Apogee: 581.3 km
Inclination: 70.0 °
Period: 96.1 minutes
Semi major axis: 6950 km
RCS: Unknown
Launch date: May 10, 2023
Source: United States (US)
Launch site: AIR FORCE WESTERN TEST RANGE (AFWTR)
Your satellite tracking list
Your tracking list is empty




NASA's NSSDC Master Catalog

Two Line Element Set (TLE):
1 56448U 23064A   26102.26553313  .00000308  00000-0  33577-4 0  9991
2 56448  69.9998  59.8723 0003005 270.4001  89.6814 14.98332195160272
Source of the keplerian elements: AFSPC